contact:dominique.lefevre@mio.osupytheas.fr, maurice.libes@osupytheas.fr
Project:EMSO Ligure-ouest http://www.emso-fr.org/EMSO-France
Sensor Aquadopp, line 13 Serial AQD14315 
DOI : "https://doi.org/10.17882/74513; https://doi.org/10.17882/83244" 
Title:EMSO Ligure Ouest : Data ligne ALBATROSS capteur AQUADOPP - deploiement 2021
Id,Date,Profondeur,Latitude,Longitude,X_East,Y_North,Z_Up,Amplitude_X,Amplitude_Y,Amplitude_Z,Batterie,SoundSpeed,Heading,Pitch,Roll,Pressure,Temperature,Speed,Direction
, , m, degrees North, degrees East, m.s-1, m.s-1,m.s-1, 1, 1, 1, Volt, m.s-1, degree, degree, degree, dbar, degree_C, m.s-1, degree
13,2023-03-05T23:30:00,2400.0,42.79,6.0312,0.0,-0.005,0.001,79.0,70.0,71.0,12.3,1504.9,294.0,0.0,-0.3,2392.908,13.34,0.005,180.0
13,2023-03-06T00:00:00,2400.0,42.79,6.0312,0.001,-0.025,0.0,77.0,71.0,72.0,12.3,1504.9,312.9,0.0,-0.4,2392.895,13.34,0.025,177.7
13,2023-03-06T00:30:00,2400.0,42.79,6.0312,-0.019,-0.027,-0.016,76.0,70.0,73.0,12.3,1504.9,313.7,0.0,-0.4,2392.887,13.34,0.033,215.1
13,2023-03-06T01:00:00,2400.0,42.79,6.0312,0.005,-0.037,0.012,75.0,68.0,71.0,12.3,1504.9,308.3,0.0,-0.3,2392.874,13.34,0.037,172.3
13,2023-03-06T01:30:00,2400.0,42.79,6.0312,-0.01,-0.038,0.0,77.0,69.0,69.0,12.3,1504.9,303.2,0.0,-0.4,2392.888,13.34,0.039,194.7
13,2023-03-06T02:00:00,2400.0,42.79,6.0312,-0.012,-0.027,-0.016,76.0,69.0,72.0,12.3,1504.9,299.7,-0.1,-0.3,2392.919,13.34,0.029,204.0
13,2023-03-06T02:30:00,2400.0,42.79,6.0312,-0.017,-0.022,-0.006,73.0,67.0,67.0,12.3,1504.9,298.9,0.0,-0.3,2392.954,13.34,0.027,217.7
13,2023-03-06T03:00:00,2400.0,42.79,6.0312,-0.014,-0.027,-0.006,71.0,67.0,69.0,12.3,1504.9,297.5,0.0,-0.3,2392.958,13.34,0.03,207.4
13,2023-03-06T03:30:00,2400.0,42.79,6.0312,-0.031,-0.016,0.011,73.0,66.0,69.0,12.3,1504.9,289.9,0.1,-0.3,2392.996,13.34,0.034,242.7
13,2023-03-06T04:00:00,2400.0,42.79,6.0312,-0.016,-0.001,-0.011,73.0,65.0,68.0,12.3,1504.9,291.1,0.0,-0.3,2393.015,13.34,0.016,266.4
13,2023-03-06T04:30:00,2400.0,42.79,6.0312,-0.011,-0.024,-0.007,74.0,65.0,68.0,12.3,1504.9,290.2,0.1,-0.4,2393.012,13.34,0.026,204.6
13,2023-03-06T05:00:00,2400.0,42.79,6.0312,-0.038,0.0,0.011,74.0,68.0,68.0,12.3,1504.9,294.0,0.1,-0.4,2393.081,13.34,0.038,270.0
13,2023-03-06T05:30:00,2400.0,42.79,6.0312,-0.041,-0.013,-0.005,73.0,67.0,70.0,12.3,1504.9,299.8,0.0,-0.4,2393.095,13.34,0.043,252.4
13,2023-03-06T06:00:00,2400.0,42.79,6.0312,-0.036,0.006,-0.017,75.0,70.0,65.0,12.3,1504.9,302.0,0.0,-0.4,2393.143,13.34,0.036,279.5
13,2023-03-06T06:30:00,2400.0,42.79,6.0312,-0.037,-0.005,-0.028,73.0,68.0,70.0,12.3,1504.9,312.4,0.1,-0.4,2393.129,13.34,0.037,262.3
13,2023-03-06T07:00:00,2400.0,42.79,6.0312,-0.029,-0.011,-0.001,72.0,66.0,70.0,12.3,1504.9,315.3,0.0,-0.5,2393.144,13.34,0.031,249.2
13,2023-03-06T07:30:00,2400.0,42.79,6.0312,-0.052,0.0,0.005,74.0,64.0,70.0,12.3,1504.9,324.4,0.1,-0.4,2393.207,13.34,0.052,270.0
13,2023-03-06T08:00:00,2400.0,42.79,6.0312,-0.044,0.001,-0.023,73.0,66.0,67.0,12.3,1504.9,319.3,0.0,-0.4,2393.211,13.34,0.044,271.3
13,2023-03-06T08:30:00,2400.0,42.79,6.0312,-0.035,0.007,-0.013,73.0,66.0,67.0,12.3,1504.9,325.5,0.0,-0.4,2393.163,13.34,0.035,281.3
13,2023-03-06T09:00:00,2400.0,42.79,6.0312,-0.029,0.01,0.003,75.0,63.0,67.0,12.3,1504.9,336.4,0.2,-0.5,2393.132,13.34,0.03,289.0
13,2023-03-06T09:30:00,2400.0,42.79,6.0312,-0.028,-0.005,0.0,73.0,67.0,67.0,12.3,1504.9,345.2,0.0,-0.4,2393.117,13.34,0.028,259.9
13,2023-03-06T10:00:00,2400.0,42.79,6.0312,0.022,0.012,-0.062,71.0,69.0,69.0,12.3,1504.9,343.1,0.0,-0.6,2393.16,13.34,0.025,61.4
13,2023-03-06T10:30:00,2400.0,42.79,6.0312,0.01,-0.008,0.009,73.0,71.0,66.0,12.3,1504.9,340.8,0.0,-0.5,2393.083,13.34,0.012,128.7
13,2023-03-06T11:00:00,2400.0,42.79,6.0312,0.006,0.005,-0.019,75.0,68.0,73.0,12.3,1504.9,339.5,0.0,-0.5,2393.053,13.34,0.007,50.2
13,2023-03-06T11:30:00,2400.0,42.79,6.0312,-0.022,-0.001,-0.017,73.0,68.0,68.0,12.3,1504.9,337.4,0.1,-0.4,2393.063,13.34,0.022,267.4
13,2023-03-06T12:30:00,2400.0,42.79,6.0312,-0.002,-0.006,0.005,75.0,64.0,72.0,12.3,1504.9,339.3,0.1,-0.5,2393.016,13.34,0.006,198.4
13,2023-03-06T13:00:00,2400.0,42.79,6.0312,0.014,-0.023,0.001,74.0,62.0,65.0,12.3,1504.9,339.5,0.0,-0.4,2392.981,13.34,0.026,148.7
13,2023-03-06T13:30:00,2400.0,42.79,6.0312,0.007,-0.008,-0.031,73.0,63.0,70.0,12.3,1504.9,343.1,0.0,-0.4,2392.994,13.34,0.01,138.8
13,2023-03-06T14:00:00,2400.0,42.79,6.0312,0.024,-0.014,0.005,71.0,62.0,67.0,12.3,1504.9,345.1,0.0,-0.3,2393.014,13.34,0.027,120.3
13,2023-03-06T14:30:00,2400.0,42.79,6.0312,0.014,-0.025,-0.018,71.0,66.0,67.0,12.3,1504.9,334.1,0.0,-0.4,2393.021,13.34,0.028,150.7
13,2023-03-06T15:00:00,2400.0,42.79,6.0312,0.02,-0.026,-0.022,74.0,63.0,66.0,12.3,1504.9,319.2,0.1,-0.5,2392.985,13.34,0.032,142.4
13,2023-03-06T15:30:00,2400.0,42.79,6.0312,0.025,-0.032,-0.001,71.0,64.0,67.0,12.3,1504.9,318.8,0.0,-0.5,2392.975,13.34,0.04,142.0
13,2023-03-06T16:00:00,2400.0,42.79,6.0312,0.013,-0.029,-0.025,72.0,67.0,65.0,12.3,1504.9,321.2,0.1,-0.4,2393.019,13.34,0.031,155.9
13,2023-03-06T16:30:00,2400.0,42.79,6.0312,0.023,-0.015,0.026,74.0,65.0,67.0,12.3,1504.9,325.5,0.1,-0.3,2393.08,13.34,0.027,123.1
13,2023-03-06T17:00:00,2400.0,42.79,6.0312,0.026,-0.024,-0.018,72.0,64.0,69.0,12.3,1504.9,329.3,0.0,-0.4,2393.066,13.34,0.035,132.7
13,2023-03-06T17:30:00,2400.0,42.79,6.0312,0.009,-0.031,-0.009,74.0,68.0,69.0,12.3,1504.9,348.1,0.3,-0.4,2393.093,13.34,0.032,163.8
13,2023-03-06T18:00:00,2400.0,42.79,6.0312,0.022,-0.031,-0.01,77.0,68.0,71.0,12.3,1504.9,5.2,0.0,-0.3,2393.093,13.34,0.038,144.6
13,2023-03-06T18:30:00,2400.0,42.79,6.0312,-0.005,-0.031,-0.007,77.0,68.0,68.0,12.3,1504.9,355.4,0.1,-0.4,2393.125,13.34,0.031,189.2
13,2023-03-06T19:00:00,2400.0,42.79,6.0312,0.033,-0.05,-0.023,78.0,69.0,71.0,12.3,1504.9,0.4,0.4,-0.3,2393.097,13.34,0.059,146.6
13,2023-03-06T19:30:00,2400.0,42.79,6.0312,0.003,-0.067,-0.048,72.0,67.0,66.0,12.3,1504.9,13.2,-0.1,-0.2,2393.119,13.34,0.067,177.4
13,2023-03-06T20:00:00,2400.0,42.79,6.0312,0.009,-0.046,0.012,74.0,68.0,72.0,12.3,1504.9,287.5,-0.2,-0.6,2393.086,13.34,0.046,168.9
13,2023-03-06T20:30:00,2400.0,42.79,6.0312,-0.009,-0.07,0.005,77.0,68.0,70.0,12.3,1504.9,21.4,0.0,-0.1,2393.074,13.34,0.07,187.3
13,2023-03-06T21:00:00,2400.0,42.79,6.0312,-0.017,-0.048,-0.007,76.0,69.0,72.0,12.3,1504.9,25.9,0.1,-0.2,2393.084,13.34,0.05,199.5
13,2023-03-06T21:30:00,2400.0,42.79,6.0312,0.027,-0.078,0.016,73.0,66.0,67.0,12.3,1504.9,308.5,0.0,-0.5,2393.041,13.34,0.082,160.9
13,2023-03-06T22:00:00,2400.0,42.79,6.0312,-0.002,-0.09,-0.032,72.0,64.0,68.0,12.3,1504.9,307.0,-0.1,-0.5,2393.051,13.34,0.09,181.3
13,2023-03-06T22:30:00,2400.0,42.79,6.0312,-0.025,-0.049,-0.012,73.0,65.0,66.0,12.3,1504.9,301.8,0.6,-0.5,2393.023,13.34,0.055,207.0
13,2023-03-06T23:00:00,2400.0,42.79,6.0312,-0.015,-0.064,-0.005,75.0,66.0,67.0,12.3,1504.9,309.9,-0.1,-0.5,2392.986,13.34,0.065,193.2
